Yatton Keynell, United Kingdom

6:39 AM BST on April 21, 2019 (GMT +0100)
Yatton Keynell

Weather History for 03740 - June, 1999

Change the Weather History Date:

Saturday, June 26, 1999

  Actual Average Record
Temperature  
Mean Temperature 64 °F -  
Max Temperature 77 °F 68 °F - ()
Min Temperature 51 °F 52 °F - ()
Degree Days  
Heating Degree Days 1    
Growing Degree Days 14 (Base 50)    
Moisture  
Dew Point 51 °F    
Average Humidity 68    
Maximum Humidity 88    
Minimum Humidity 36    
Precipitation  
Precipitation 0.00 in 0.07 in - ()
Sea Level Pressure  
Sea Level Pressure 29.74 in    
Wind  
Wind Speed 9 mph ()    
Max Wind Speed 22 mph    
Max Gust Speed -    
Visibility 5.5 miles    
Events Rain    
T = Trace of Precipitation, MM = Missing Value Source: Averaged Metar Reports

Daily Weather History Graph

Daily Weather History Graph

Search for Another Location

Airport or City:

Astronomy

Jun. 26, 1999 Rise Set
Actual Time 4:51 AM BST 9:29 PM BST
Civil Twilight 4:04 AM BST 10:16 PM BST
Nautical Twilight 2:50 AM BST 11:30 PM BST
Astronomical Twilight 1:43 AM BST 12:38 AM BST
Moon 7:04 PM BST (6/26) 3:36 AM BST (6/26)
Length of Visible Light 18h 12m
Length of Day
16h 37m
Waxing Gibbous, 95% of the Moon is Illuminated
Jun 26
Waxing Gibbous
Jun 28
Full
Jul 6
Last Quarter
Jul 13
New
Jul 20
First Quarter

Hourly Weather History & Observations

Time (BST) Temp. Dew Point Humidity Pressure Visibility Wind Dir Wind Speed Gust Speed Precip Events Conditions
12:50 AM 55.4 °F 46.4 °F 72% 30.01 in - ESE 10.4 mph - N/A   Clear
1:50 AM 53.6 °F 46.4 °F 77% 29.98 in - ESE 9.2 mph - N/A   Clear
2:50 AM 51.8 °F 46.4 °F 82% 29.95 in - ENE 6.9 mph - N/A   Clear
3:50 AM 51.8 °F 46.4 °F 82% 29.89 in - East 6.9 mph - N/A   Clear
4:50 AM 51.8 °F 48.2 °F 88% 29.89 in - East 5.8 mph - N/A   Clear
5:50 AM 51.8 °F 48.2 °F 88% 29.86 in 5.0 mi East 8.1 mph - N/A   Haze
6:50 AM 55.4 °F 50.0 °F 82% 29.83 in 4.3 mi ENE 1.2 mph - N/A   Haze
7:50 AM 59.0 °F 50.0 °F 72% 29.83 in 5.0 mi ESE 5.8 mph - N/A   Haze
8:50 AM 62.6 °F 51.8 °F 68% 29.80 in 5.0 mi ESE 6.9 mph - N/A   Haze
9:50 AM 66.2 °F 53.6 °F 64% 29.77 in 5.6 mi East 5.8 mph - N/A   Haze
10:50 AM 71.6 °F 50.0 °F 46% 29.77 in - SE 13.8 mph - N/A   Clear
11:50 AM 73.4 °F 51.8 °F 47% 29.74 in - SE 15.0 mph - N/A   Clear
12:50 PM 77.0 °F 53.6 °F 44% 29.71 in - SE 15.0 mph - N/A   Clear
1:50 PM 77.0 °F 50.0 °F 39% 29.68 in - SSE 18.4 mph - N/A   Clear
2:50 PM 77.0 °F 48.2 °F 36% 29.65 in - SSE 21.9 mph - N/A   Clear
3:50 PM 75.2 °F 51.8 °F 44% 29.65 in - South 16.1 mph - N/A   Clear
4:50 PM 71.6 °F 55.4 °F 57% 29.62 in - SSE 15.0 mph - N/A   Clear
5:50 PM 68.0 °F 57.2 °F 68% 29.62 in - South 16.1 mph - N/A   Clear
6:50 PM 64.4 °F 55.4 °F 73% 29.59 in 6.2 mi South 10.4 mph - N/A   Mostly Cloudy
7:50 PM 60.8 °F 55.4 °F 82% 29.59 in 6.2 mi South 15.0 mph - N/A Rain Light Rain Showers
8:50 PM 60.8 °F 53.6 °F 77% 29.59 in 6.2 mi SSW 11.5 mph - N/A   Mostly Cloudy
9:50 PM 60.8 °F 55.4 °F 82% 29.59 in 5.6 mi South 12.7 mph - N/A   Haze
10:50 PM 59.0 °F 53.6 °F 82% 29.56 in 5.6 mi South 12.7 mph - N/A   Haze
11:50 PM 59.0 °F 53.6 °F 82% 29.56 in 5.6 mi South 12.7 mph - N/A   Haze